Flag for U.S.A. Weather past 2 weeks in Rockford, Illinois, U.S.A.

Now
31 °F

Light snow. Ice fog.


Feels Like: 24 °F
Forecast: 14 / 29 °F
Wind: 7 mph from East

Location: Greater Rockford Airport

Current Time: Jan 31, 2015 at 11:02:34 PM

Latest Report: Jan 31, 2015 at 9:54 PM


Visibility: 1 mi

Pressure: 30.17 "Hg

Humidity: 89%

Dew point: 28 °F

Location of RockfordLocation

Historic Weather in Rockford — Graph

°F

Rockford temperature yesterday

Maximum temperature yesterday: 28 °F (at 12:54 AM)
Minimum temperature yesterday: 17 °F (at 6:54 AM)
Average temperature yesterday: 23 °F

Past Weeks' High & Low Weather Summary

 TemperatureHumidityPressure
High41 °F (Jan 17, 1:54 PM)92% (Jan 20, 12:54 AM)30.59 "Hg (Jan 20, 12:54 AM)
Low13 °F (Jan 26, 3:54 AM)47% (Jan 30, 2:54 PM)29.60 "Hg (Jan 17, 1:54 PM)
Average30 °F77%30.05 "Hg
* Reported Jan 16 9:54 PM — Jan 31 9:54 PM, Rockford, Weather by CustomWeather, © 2014

Note: Actual official high and low records may vary slightly from our data, if they occured in-between our weather recording intervals... More about our weather records

Advertising

Rockford weather history for previous 24 hours

 ConditionsComfort  
Time TempWeatherWind HumidityBarometerVisibility
9:54 PM
Jan 31
31 °FLight snow. Ice fog.7 mph89%30.17 "Hg1 mi
8:54 PM31 °FLight snow. Ice fog.7 mph89%30.17 "Hg1 mi
7:54 PM33 °FLight snow. Overcast.6 mph75%30.19 "Hg3 mi
6:54 PM34 °FLight snow. Overcast.6 mph70%30.19 "Hg6 mi
5:54 PM34 °FOvercast.No wind73%30.20 "Hg10 mi
4:54 PM35 °FMostly cloudy.No wind70%30.19 "Hg10 mi
3:54 PM36 °FOvercast.3 mph67%30.20 "Hg10 mi
2:54 PM36 °FPartly sunny.6 mph64%30.20 "Hg10 mi
1:54 PM36 °FMostly cloudy.5 mph64%30.19 "Hg10 mi
12:54 PM36 °FCloudy.6 mph62%30.19 "Hg10 mi
11:54 AM34 °FBroken clouds.7 mph64%30.22 "Hg10 mi
10:54 AM34 °FPartly sunny.8 mph64%30.26 "Hg10 mi
9:54 AM31 °FPartly sunny.7 mph67%30.25 "Hg10 mi
8:54 AM28 °FBroken clouds.5 mph72%30.26 "Hg10 mi
7:54 AM25 °FPartly sunny.3 mph75%30.27 "Hg10 mi
6:54 AM22 °FPassing clouds.8 mph78%30.26 "Hg10 mi
5:54 AM21 °FPartly cloudy.7 mph78%30.27 "Hg10 mi
4:54 AM21 °FPassing clouds.7 mph78%30.27 "Hg10 mi
3:54 AM20 °FPassing clouds.6 mph82%30.28 "Hg10 mi
2:54 AM22 °FPassing clouds.6 mph78%30.31 "Hg10 mi
1:54 AM24 °FOvercast.9 mph75%30.33 "Hg10 mi
12:54 AM22 °FOvercast.6 mph78%30.34 "Hg10 mi
11:54 PM
Jan 30
20 °FOvercast.5 mph82%30.38 "Hg10 mi
Weather by CustomWeather, © 2014

See weather overviewHow to use our weather pages